This is the latest recevied weather packets stored in our database for station/object AD8IZ-13. If no packets are shown the sender has not sent any weather packets the latest 10 day(s).
| Time | Temp. | Humidity | Pressure | Rain* | Wind** | Luminosity | Snow |
|---|---|---|---|---|---|---|---|
| 1778048119 | 10.56° C | 98% | 1007 hPa | 1.02 mm | - | 0 W/m² | - |
| 1778047518 | 10.56° C | 98% | 1007.1 hPa | 0.76 mm | - | 0 W/m² | - |
| 1778046918 | 11.11° C | 98% | 1007.2 hPa | 0.76 mm | - | 0 W/m² | - |
| 1778046321 | 11.11° C | 98% | 1007.4 hPa | 0.51 mm | - | 0 W/m² | - |
| 1778045719 | 11.11° C | 98% | 1007.3 hPa | 0.25 mm | - | 0 W/m² | - |
| 1778045120 | 11.11° C | 98% | 1007.3 hPa | 0 mm | - | 0 W/m² | - |
| 1778044519 | 11.11° C | 98% | 1007.4 hPa | 0 mm | - | 0 W/m² | - |
| 1778043919 | 11.11° C | 98% | 1007.5 hPa | 0 mm | - | 0 W/m² | - |
| 1778043320 | 11.11° C | 98% | 1007.5 hPa | 0 mm | - | 0 W/m² | - |
| 1778042720 | 11.67° C | 98% | 1007.5 hPa | 0.25 mm | - | 0 W/m² | - |
| 1778042121 | 12.22° C | 98% | 1007.7 hPa | 0.76 mm | - | 0 W/m² | - |
| 1778041520 | 12.78° C | 98% | 1007.6 hPa | 1.52 mm | - | 0 W/m² | - |
| 1778040919 | 13.89° C | 98% | 1007.6 hPa | 2.03 mm | - | 0 W/m² | - |
| 1778040319 | 14.44° C | 98% | 1007.5 hPa | 2.79 mm | - | 0 W/m² | - |
| 1778039722 | 14.44° C | 98% | 1007.6 hPa | 3.05 mm | - | 0 W/m² | - |
| 1778039121 | 14.44° C | 98% | 1007.9 hPa | 2.79 mm | - | 0 W/m² | - |
| 1778038518 | 14.44° C | 98% | 1008 hPa | 2.79 mm | - | 0 W/m² | - |
| 1778037918 | 14.44° C | 98% | 1008.1 hPa | 2.79 mm | - | 0 W/m² | - |
| 1778037321 | 15° C | 98% | 1008.1 hPa | 2.54 mm | - | 0 W/m² | - |
| 1778036719 | 15° C | 98% | 1008.1 hPa | 2.54 mm | - | 0 W/m² | - |
| 1778036118 | 15° C | 98% | 1008.1 hPa | 2.79 mm | - | 0 W/m² | - |
| 1778035519 | 15° C | 98% | 1008 hPa | 3.05 mm | - | 0 W/m² | - |
| 1778034919 | 15° C | 98% | 1008.2 hPa | 3.3 mm | - | 0 W/m² | - |
| 1778034317 | 15° C | 98% | 1008.2 hPa | 2.79 mm | - | 0 W/m² | - |
| 1778033721 | 15° C | 98% | 1008.2 hPa | 2.54 mm | - | 0 W/m² | - |
* Rain latest hour (hover to see other rain measurements)
** Current wind speed in m/s (hover to see current wind gust speed)